Regional Weather Roundup
Issued by NWS Sioux Falls, SD

Home | Current Version | Previous Version | Graphics & Text | Print | Product List | Glossary Off
Versions: 1 2 3 4 5 6 7 8 9 10 11 12 13 14 15 16 17 18 19 20 21 22 23 24 25 26 27 28 29 30 31 32 33 34 35 36 37 38 39 40 41 42 43 44 45 46 47 48 49 50

000
ASUS43 KFSD 221910
RWRFSD

WEATHER ROUNDUP FOR SE SOUTH DAKOTA/SW MINNESOTA/NW IOWA
NATIONAL WEATHER SERVICE SIOUX FALLS SD
200 PM CDT FRI JUL 22 2016

NOTE: "FAIR" INDICATES FEW OR NO CLOUDS BELOW 12,000 FEET WITH NO
SIGNIFICANT WEATHER AND OR OBSTRUCTIONS TO VISIBILITY.


SDZ038>040-050-052>070-222000-
SOUTHEAST SOUTH DAKOTA

CITY           SKY/WX    TMP DP  RH WIND       PRES   REMARKS
BROOKINGS      MOSUNNY   89  77  67 E10       30.00F HX 101
CHAMBERLAIN    SUNNY     92  79  65 SE6       29.98F HX 108
HURON          SUNNY     94  75  54 E7G21     29.96F HX 105
MADISON        FAIR      86  82  89 E12       30.01F HX 105
MITCHELL       SUNNY     93  79  63 SE10      29.96F HX 110
SIOUX FALLS    MOSUNNY   92  77  61 E10       29.98F HX 105
WINNER         FAIR      94  72  48 SE8       30.00F HX 102
YANKTON        MOSUNNY   91  81  70 NE12      29.93F HX 110
$$

MNZ071-072-080-081-089-090-097-098-222000-
SOUTHWEST MINNESOTA

CITY           SKY/WX    TMP DP  RH WIND       PRES   REMARKS
FAIRMONT       CLOUDY    84  70  61 NE8       30.00F
JACKSON        PTSUNNY   88  77  70 E9        30.02F HX 100
LUVERNE        PTSUNNY   90  75  62 E9        29.99F HX 100
MARSHALL       PTSUNNY   88  77  69 SE10      30.00F HX 100
MONTEVIDEO     SUNNY     91  64  40 S8        30.02F
REDWOOD FALLS  SUNNY     90  69  50 E6        30.00S
TRACY          PTSUNNY   89  80  73 E8        30.01F HX 106
WINDOM         MOSUNNY   88  79  74 E9        30.01F HX 102
WORTHINGTON    PTSUNNY   88  80  77 E14       30.01F HX 104
$$

IAZ001>003-012>014-020>022-031-032-NEZ013-014-SDZ071-222000-
NORTHWEST IOWA

CITY           SKY/WX    TMP DP  RH WIND       PRES   REMARKS
CHEROKEE       PTSUNNY   89  79  70 SE3       29.98S HX 104
DENISON        SUNNY     88  79  74 S9G17     29.96S HX 102
ESTHERVILLE    CLOUDY    83  79  88 NE9       30.01S
LE MARS        PTSUNNY   93  81  66 E9        29.96F HX 113
SHELDON        PTSUNNY   88  81  79 E10       29.98F HX 105
SIOUX CITY     SUNNY     93  77  59 SE8       29.95S HX 107
SPENCER        PTSUNNY   86  79  79 E9        30.00F HX  99
STORM LAKE       N/A     88  79  74 SE3       30.00S HX 102
$$

ABBREVIATIONS USED IN REMARKS
   TC - TEMPERATURE IN CELSIUS
  WCI - WIND CHILL INDEX
   HX - HEAT INDEX
  VSB - VISIBILITY





USA.gov is the U.S. government's official web portal to all federal, state and local government web resources and services.